Terminal Aerodrome Forecast
Issued by NWS Aberdeen, SD

Home | Current Version | Previous Version | Text Only | Print | Product List | Glossary On
Versions: 1 2 3 4 5 6 7 8 9 10 11 12 13 14 15 16 17 18 19 20 21 22 23 24 25 26 27 28 29 30 31 32 33 34 35 36 37 38 39 40 41 42 43 44 45 46 47 48 49 50
000
FTUS43 KABR 051314 AAA
TAFABR
TAF AMD
KABR 051314Z 0513/0612 06007KT 6SM BR SKC
     FM051800 16011G19KT P6SM VCTS SCT050CB BKN100
     FM060100 15007KT P6SM SKC=

USA.gov is the U.S. government's official web portal to all federal, state and local government web resources and services.